TimeCDT,TemperatureF,Dew PointF,Humidity,Sea Level PressureIn,VisibilityMPH,Wind Direction,Wind SpeedMPH,Gust SpeedMPH,PrecipitationIn,Events,Conditions,WindDirDegrees,DateUTC
12:11 AM,39.2,33.8,81,30.14,10.0,WNW,8.1,-,N/A,,Overcast,290,2013-10-16 05:11:00
12:53 AM,39.0,34.0,82,30.17,10.0,West,8.1,-,N/A,,Overcast,280,2013-10-16 05:53:00
1:53 AM,39.9,34.0,79,30.17,10.0,West,9.2,-,N/A,,Overcast,280,2013-10-16 06:53:00
2:53 AM,39.9,34.0,79,30.17,10.0,West,9.2,-,N/A,,Overcast,280,2013-10-16 07:53:00
3:53 AM,39.9,34.0,79,30.15,10.0,WNW,8.1,-,N/A,,Overcast,290,2013-10-16 08:53:00
4:53 AM,37.9,34.0,86,30.13,10.0,WNW,4.6,-,N/A,,Partly Cloudy,300,2013-10-16 09:53:00
5:53 AM,37.9,34.0,86,30.13,10.0,WNW,4.6,-,N/A,,Partly Cloudy,290,2013-10-16 10:53:00
6:53 AM,39.0,34.0,82,30.14,10.0,WSW,4.6,-,N/A,,Overcast,240,2013-10-16 11:53:00
7:53 AM,39.0,34.0,82,30.15,10.0,West,5.8,-,N/A,,Overcast,260,2013-10-16 12:53:00
8:53 AM,39.9,35.1,83,30.15,10.0,West,8.1,-,N/A,,Mostly Cloudy,260,2013-10-16 13:53:00
9:53 AM,43.0,35.1,74,30.14,10.0,WNW,8.1,-,N/A,,Overcast,290,2013-10-16 14:53:00
10:53 AM,46.9,34.0,61,30.13,10.0,NW,6.9,-,N/A,,Clear,310,2013-10-16 15:53:00
11:53 AM,48.9,33.1,54,30.11,10.0,West,8.1,-,N/A,,Mostly Cloudy,280,2013-10-16 16:53:00
12:53 PM,52.0,32.0,47,30.08,10.0,NNW,9.2,-,N/A,,Clear,330,2013-10-16 17:53:00
1:53 PM,54.0,30.9,41,30.04,10.0,NNW,9.2,-,N/A,,Clear,330,2013-10-16 18:53:00
2:53 PM,55.0,30.0,38,30.01,10.0,WNW,10.4,-,N/A,,Clear,290,2013-10-16 19:53:00
3:53 PM,55.0,30.0,38,30.00,10.0,West,8.1,-,N/A,,Clear,270,2013-10-16 20:53:00
4:53 PM,54.0,30.9,41,29.99,10.0,WNW,8.1,-,N/A,,Clear,290,2013-10-16 21:53:00
5:53 PM,53.1,30.9,43,29.98,10.0,West,5.8,-,N/A,,Clear,270,2013-10-16 22:53:00
6:53 PM,46.9,30.9,54,29.98,10.0,West,5.8,-,N/A,,Clear,260,2013-10-16 23:53:00
7:53 PM,39.9,34.0,79,29.99,10.0,SW,5.8,-,N/A,,Clear,220,2013-10-17 00:53:00
8:53 PM,37.0,32.0,82,29.99,10.0,Calm,Calm,-,N/A,,Clear,0,2013-10-17 01:53:00
9:53 PM,37.9,30.9,76,29.98,10.0,South,3.5,-,N/A,,Clear,180,2013-10-17 02:53:00
10:53 PM,37.0,30.0,76,29.98,10.0,SSW,3.5,-,N/A,,Clear,200,2013-10-17 03:53:00
11:53 PM,34.0,30.9,89,29.97,10.0,Calm,Calm,-,N/A,,Clear,0,2013-10-17 04:53:00